• In Belarus
  • List of Countries
  • For 7 days
  • Water Temperature
  • Satellite Maps
  • Weather Map
  • Weather Widgets
  • user-avatar
    Login

    Hourly Weather Saidpur

    Today, 16 December, Saturday

    Time Temperature Precipitation Wind Pressure Humidity
    00:00 +20°C° 0 mm 1 mps 759 mmHg 45%
    01:00 +20°C° 0 mm 1 mps 759 mmHg 47%
    02:00 +20°C° 0 mm 1 mps 759 mmHg 50%
    03:00 +19°C° 0 mm 1 mps 758 mmHg 52%
    04:00 +19°C° 0 mm 1 mps 758 mmHg 56%
    05:00 +18°C° 0 mm 1 mps 758 mmHg 60%
    06:00 +18°C° 0 mm 1 mps 759 mmHg 63%
    07:00 +19°C° 0 mm 1 mps 759 mmHg 62%
    08:00 +20°C° 0 mm 1 mps 759 mmHg 60%
    09:00 +22°C° 0 mm 1 mps 760 mmHg 58%
    10:00 +24°C° 0 mm 1 mps 760 mmHg 53%
    11:00 +25°C° 0 mm 1 mps 760 mmHg 47%
    12:00 +28°C° 0 mm 1 mps 760 mmHg 38%
    13:00 +28°C° 0 mm 1 mps 759 mmHg 36%
    14:00 +28°C° 0 mm 1 mps 759 mmHg 35%
    15:00 +29°C° 0 mm 1 mps 758 mmHg 33%
    16:00 +27°C° 0 mm 1 mps 758 mmHg 35%
    17:00 +26°C° 0 mm 1 mps 758 mmHg 37%
    18:00 +25°C° 0 mm 1 mps 758 mmHg 39%
    19:00 +24°C° 0 mm 1 mps 759 mmHg 39%
    20:00 +23°C° 0 mm 1 mps 759 mmHg 40%
    21:00 +23°C° 0 mm 1 mps 759 mmHg 40%
    22:00 +22°C° 0 mm 1 mps 759 mmHg 41%
    23:00 +22°C° 0 mm 1 mps 760 mmHg 41%

    Tomorrow, 17 December, Sunday

    Time Temperature Precipitation Wind Pressure Humidity
    00:00 +21°C° 0 mm 1 mps 760 mmHg 41%
    01:00 +21°C° 0 mm 1 mps 759 mmHg 43%
    02:00 +20°C° 0 mm 1 mps 759 mmHg 44%
    03:00 +20°C° 0 mm 1 mps 759 mmHg 45%
    04:00 +20°C° 0 mm 1 mps 759 mmHg 48%
    05:00 +19°C° 0 mm 1 mps 760 mmHg 51%
    06:00 +19°C° 0 mm 1 mps 760 mmHg 53%
    07:00 +20°C° 0 mm 1 mps 760 mmHg 53%
    08:00 +21°C° 0 mm 2 mps 761 mmHg 54%
    09:00 +23°C° 0 mm 2 mps 761 mmHg 54%
    10:00 +24°C° 0 mm 2 mps 761 mmHg 52%
    11:00 +26°C° 0 mm 2 mps 761 mmHg 50%
    12:00 +27°C° 0 mm 2 mps 761 mmHg 49%
    13:00 +28°C° 0 mm 2 mps 760 mmHg 47%
    14:00 +28°C° 0 mm 1 mps 759 mmHg 45%
    15:00 +28°C° 0 mm 1 mps 759 mmHg 43%
    16:00 +27°C° 0 mm 1 mps 759 mmHg 46%
    17:00 +26°C° 0 mm 1 mps 759 mmHg 48%
    18:00 +25°C° 0 mm 2 mps 759 mmHg 51%
    19:00 +24°C° 0 mm 2 mps 759 mmHg 51%
    20:00 +24°C° 0 mm 2 mps 760 mmHg 51%
    21:00 +23°C° 0 mm 2 mps 760 mmHg 51%
    22:00 +23°C° 0 mm 2 mps 760 mmHg 50%
    23:00 +21°C° 0 mm 2 mps 760 mmHg 50%

    Day after tomorrow, 18 December, Monday

    Time Temperature Precipitation Wind Pressure Humidity
    00:00 +21°C° 0 mm 2 mps 760 mmHg 49%
    01:00 +20°C° 0 mm 2 mps 760 mmHg 50%
    02:00 +20°C° 0 mm 2 mps 760 mmHg 51%
    03:00 +19°C° 0 mm 2 mps 760 mmHg 52%
    04:00 +19°C° 0 mm 2 mps 760 mmHg 55%
    05:00 +19°C° 0 mm 2 mps 760 mmHg 58%
    06:00 +18°C° 0 mm 2 mps 760 mmHg 60%
    07:00 +19°C° 0 mm 2 mps 761 mmHg 60%
    08:00 +21°C° 0 mm 2 mps 761 mmHg 59%
    09:00 +23°C° 0 mm 2 mps 762 mmHg 58%
    10:00 +24°C° 0 mm 2 mps 762 mmHg 55%
    11:00 +26°C° 0 mm 1 mps 761 mmHg 52%
    12:00 +27°C° 0 mm 1 mps 761 mmHg 50%
    13:00 +27°C° 0 mm 1 mps 760 mmHg 47%
    14:00 +28°C° 0 mm 1 mps 759 mmHg 44%
    15:00 +28°C° 0 mm 1 mps 759 mmHg 41%
    16:00 +27°C° 0 mm 1 mps 759 mmHg 44%
    17:00 +26°C° 0 mm 1 mps 759 mmHg 47%
    18:00 +25°C° 0 mm 2 mps 759 mmHg 49%
    19:00 +24°C° 0 mm 2 mps 760 mmHg 51%
    20:00 +24°C° 0 mm 2 mps 760 mmHg 52%
    21:00 +23°C° 0 mm 2 mps 761 mmHg 53%
    22:00 +23°C° 0 mm 2 mps 761 mmHg 53%
    23:00 +21°C° 0 mm 2 mps 761 mmHg 54%

    19 December, Tuesday

    Time Temperature Precipitation Wind Pressure Humidity
    00:00 +20°C° 0 mm 2 mps 760 mmHg 55%
    01:00 +20°C° 0 mm 2 mps 760 mmHg 56%
    02:00 +20°C° 0 mm 2 mps 760 mmHg 58%
    03:00 +19°C° 0 mm 2 mps 760 mmHg 59%
    04:00 +19°C° 0 mm 2 mps 760 mmHg 61%
    05:00 +18°C° 0 mm 2 mps 760 mmHg 63%
    06:00 +19°C° 0 mm 1 mps 760 mmHg 66%
    07:00 +19°C° 0 mm 2 mps 761 mmHg 63%
    08:00 +20°C° 0 mm 2 mps 761 mmHg 61%
    09:00 +23°C° 0 mm 2 mps 762 mmHg 59%
    10:00 +24°C° 0 mm 2 mps 762 mmHg 55%
    11:00 +25°C° 0 mm 2 mps 761 mmHg 51%
    12:00 +27°C° 0 mm 2 mps 761 mmHg 48%
    13:00 +27°C° 0 mm 2 mps 760 mmHg 45%
    14:00 +28°C° 0 mm 1 mps 760 mmHg 43%
    15:00 +28°C° 0 mm 1 mps 759 mmHg 40%
    16:00 +27°C° 0 mm 1 mps 759 mmHg 43%
    17:00 +26°C° 0 mm 1 mps 759 mmHg 46%
    18:00 +25°C° 0 mm 1 mps 759 mmHg 49%
    19:00 +24°C° 0 mm 1 mps 760 mmHg 51%
    20:00 +24°C° 0 mm 1 mps 760 mmHg 53%
    21:00 +23°C° 0 mm 1 mps 761 mmHg 55%
    22:00 +23°C° 0 mm 1 mps 761 mmHg 56%
    23:00 +22°C° 0 mm 1 mps 761 mmHg 58%

    20 December, Wednesday

    Time Temperature Precipitation Wind Pressure Humidity
    00:00 +21°C° 0 mm 2 mps 761 mmHg 59%
    01:00 +20°C° 0 mm 2 mps 761 mmHg 60%
    02:00 +20°C° 0 mm 2 mps 760 mmHg 62%
    03:00 +19°C° 0 mm 2 mps 760 mmHg 63%
    04:00 +19°C° 0 mm 2 mps 760 mmHg 65%
    05:00 +19°C° 0 mm 2 mps 761 mmHg 67%
    06:00 +18°C° 0 mm 2 mps 761 mmHg 69%
    07:00 +19°C° 0 mm 2 mps 761 mmHg 65%
    08:00 +21°C° 0 mm 2 mps 762 mmHg 62%
    09:00 +23°C° 0 mm 2 mps 763 mmHg 58%
    10:00 +24°C° 0 mm 2 mps 762 mmHg 53%
    11:00 +26°C° 0 mm 2 mps 762 mmHg 49%
    12:00 +27°C° 0 mm 2 mps 761 mmHg 44%
    13:00 +28°C° 0 mm 2 mps 761 mmHg 41%
    14:00 +28°C° 0 mm 2 mps 760 mmHg 39%
    15:00 +29°C° 0 mm 1 mps 759 mmHg 37%
    16:00 +28°C° 0 mm 1 mps 760 mmHg 40%
    17:00 +26°C° 0 mm 1 mps 760 mmHg 43%
    18:00 +25°C° 0 mm 1 mps 760 mmHg 46%
    19:00 +25°C° 0 mm 1 mps 760 mmHg 48%
    20:00 +24°C° 0 mm 1 mps 761 mmHg 50%
    21:00 +23°C° 0 mm 1 mps 761 mmHg 52%
    22:00 +23°C° 0 mm 1 mps 761 mmHg 54%
    23:00 +22°C° 0 mm 1 mps 761 mmHg 56%

    21 December, Thursday

    Time Temperature Precipitation Wind Pressure Humidity
    00:00 +22°C° 0 mm 1 mps 761 mmHg 58%
    01:00 +21°C° 0 mm 1 mps 760 mmHg 60%
    02:00 +21°C° 0 mm 1 mps 760 mmHg 61%
    03:00 +20°C° 0 mm 1 mps 760 mmHg 63%
    04:00 +20°C° 0 mm 1 mps 760 mmHg 64%
    05:00 +20°C° 0 mm 1 mps 760 mmHg 64%
    06:00 +19°C° 0 mm 1 mps 760 mmHg 65%
    07:00 +20°C° 0 mm 1 mps 761 mmHg 61%
    08:00 +20°C° 0 mm 2 mps 761 mmHg 58%
    09:00 +23°C° 0 mm 2 mps 762 mmHg 54%
    10:00 +24°C° 0 mm 2 mps 761 mmHg 50%
    11:00 +25°C° 0 mm 2 mps 761 mmHg 46%
    12:00 +27°C° 0 mm 2 mps 760 mmHg 42%
    13:00 +27°C° 0 mm 2 mps 760 mmHg 40%
    14:00 +28°C° 0 mm 1 mps 759 mmHg 38%
    15:00 +28°C° 0 mm 1 mps 758 mmHg 36%
    16:00 +27°C° 0 mm 1 mps 758 mmHg 39%
    17:00 +26°C° 0 mm 1 mps 758 mmHg 42%
    18:00 +25°C° 0 mm 1 mps 759 mmHg 45%
    19:00 +24°C° 0 mm 1 mps 759 mmHg 46%
    20:00 +24°C° 0 mm 1 mps 759 mmHg 48%
    21:00 +23°C° 0 mm 1 mps 759 mmHg 49%
    22:00 +23°C° 0 mm 1 mps 759 mmHg 51%
    23:00 +22°C° 0 mm 1 mps 759 mmHg 52%
    Show more